Simultaneous Nadir Overpasses (SNOs) Predictions

Prediction of SNOs between AQUA and NOAA-19 Satellite Orbit:

Table of predicted SNOs for the next 14.0 days since TLE Epoch: 12/5/2011
Index Date Time (AQUA) AQUA Lat,Lon NOAA-19 Lat,Lon Distance(km) Time Diff (sec)
1 12/06/2011 03:06:39 43.77, -14.97 43.77, -14.98 0.64 35
2 12/08/2011 07:49:03 50.40, -83.47 50.40, -83.45 1.29 1
3 12/10/2011 12:32:07 54.57,-152.57 54.57,-152.57 0.14 35
4 12/12/2011 16:29:21 -46.07, -34.97 -46.07, -34.99 1.46 22
5 12/14/2011 21:11:57 -51.80,-103.66 -51.80,-103.68 0.97 14
6 12/17/2011 01:54:48 -56.57,-172.31 -56.57,-172.31 0.20 51




NCC Satellite Simultaneous Nadir Overpasses (SNOs) Prediction Service
